| time (UTC) | temp C | wind direction | speed KPH | gust KPH | rain 1hr cm | rain 24hr cm | rain mn cm | humidity % | barometer mb |
| 20260509194043 | 22 | 237 | 9.7 | 14.5 | 0.00 | 0.00 | 0.00 | 54 | 1015.2 |
| 20260509193037 | 21 | 260 | 9.7 | 16.1 | 0.00 | 0.00 | 0.00 | 57 | 1015.2 |
| 20260509192026 | 21 | 269 | 6.4 | 12.9 | 0.00 | 0.00 | 0.00 | 58 | 1015.2 |
| 20260509191034 | 21 | 291 | 8.0 | 14.5 | 0.00 | 0.00 | 0.00 | 58 | 1016.0 |
| 20260509190104 | 21 | 297 | 8.0 | 14.5 | 0.00 | 0.00 | 0.00 | 59 | 1016.2 |
| 20260509185034 | 21 | 259 | 12.9 | 20.9 | 0.00 | 0.00 | 0.00 | 60 | 1016.2 |
| 20260509184021 | 21 | 248 | 11.3 | 14.5 | 0.00 | 0.00 | 0.00 | 59 | 1016.2 |
| 20260509183028 | 21 | 275 | 8.0 | 14.5 | 0.00 | 0.00 | 0.00 | 58 | 1016.2 |
| 20260509182056 | 21 | 293 | 8.0 | 14.5 | 0.00 | 0.00 | 0.00 | 59 | 1016.2 |
| 20260509181043 | 20 | 318 | 8.0 | 9.7 | 0.00 | 0.00 | 0.00 | 62 | 1016.2 |
| 20260509180708 | 20 | 23 | 6.4 | 8.0 | 0.00 | 0.00 | 0.00 | 61 | |
| 20260509175023 | 20 | 331 | 9.7 | 14.5 | 0.00 | 0.00 | 0.00 | 63 | 1016.2 |
| 20260509174258 | 19 | 8.0 | 8.0 | 0.00 | 0.00 | 0.00 | 64 | 1016.2 | |
| 20260509173621 | 19 | 30 | 8.0 | 12.9 | 0.00 | 0.00 | 0.00 | 65 | 1016.2 |
| 20260509172027 | 18 | 318 | 6.4 | 9.7 | 0.00 | 0.00 | 0.00 | 67 | 1016.2 |
| 20260509171034 | 17 | 360 | 9.7 | 12.9 | 0.00 | 0.00 | 0.00 | 70 | 1017.0 |
| 20260509170025 | 17 | 6 | 8.0 | 11.3 | 0.00 | 0.00 | 0.00 | 69 | 1017.2 |
| 20260509165032 | 17 | 2 | 6.4 | 11.3 | 0.00 | 0.00 | 0.00 | 71 | 1017.2 |
| 20260509164042 | 17 | 333 | 8.0 | 11.3 | 0.00 | 0.00 | 0.00 | 71 | 1017.2 |
| 20260509163029 | 16 | 335 | 6.4 | 9.7 | 0.00 | 0.00 | 0.00 | 74 | 1017.2 |
| 20260509162019 | 16 | 251 | 4.8 | 8.0 | 0.00 | 0.00 | 0.00 | 77 | 1017.2 |
| 20260509161026 | 15 | 294 | 6.4 | 11.3 | 0.00 | 0.00 | 0.00 | 78 | 1017.2 |
| 20260509160114 | 15 | 299 | 4.8 | 9.7 | 0.00 | 0.00 | 0.00 | 80 | 1017.2 |
| 20260509155025 | 14 | 323 | 8.0 | 12.9 | 0.00 | 0.00 | 0.00 | 81 | 1017.2 |
| 20260509154107 | 14 | 329 | 6.4 | 11.3 | 0.00 | 0.00 | 0.00 | 81 | 1017.9 |
| 20260509153022 | 14 | 320 | 6.4 | 9.7 | 0.00 | 0.00 | 0.00 | 82 | 1018.1 |
| 20260509152030 | 13 | 313 | 4.8 | 6.4 | 0.00 | 0.00 | 0.00 | 83 | 1018.1 |
| 20260509151037 | 13 | 12 | 6.4 | 8.0 | 0.00 | 0.00 | 0.00 | 84 | 1018.1 |
| 20260509150027 | 13 | 293 | 3.2 | 4.8 | 0.00 | 0.00 | 0.00 | 85 | 1018.2 |
| 20260509145055 | 12 | 333 | 3.2 | 6.4 | 0.00 | 0.00 | 0.00 | 86 | 1018.2 |
| 20260509144024 | 12 | 344 | 3.2 | 4.8 | 0.00 | 0.00 | 0.00 | 88 | 1018.1 |
| 20260509143032 | 12 | 18 | 3.2 | 6.4 | 0.00 | 0.00 | 0.00 | 89 | 1018.2 |
| 20260509142025 | 11 | 25 | 6.4 | 6.4 | 0.00 | 0.00 | 0.00 | 89 | 1018.1 |
| 20260509141029 | 11 | 334 | 3.2 | 4.8 | 0.00 | 0.00 | 0.00 | 92 | 1017.3 |
| 20260509140019 | 11 | 43 | 1.6 | 4.8 | 0.00 | 0.00 | 0.00 | 93 | 1017.1 |
| 20260509135027 | 9 | 0.0 | 0.0 | 0.00 | 0.00 | 0.00 | 99 | 1017.1 | |
| 20260509134049 | 8 | 0.0 | 0.0 | 0.00 | 0.00 | 0.00 | 99 | 1017.1 | |
| 20260509133019 | 8 | 0.0 | 0.0 | 0.00 | 0.00 | 0.00 | 99 | 1017.1 | |
| 20260509132032 | 7 | 0.0 | 0.0 | 0.00 | 0.00 | 0.00 | 99 | 1017.1 | |
| 20260509131024 | 7 | 0.0 | 0.0 | 0.00 | 0.00 | 0.00 | 99 | 1017.1 | |
| 20260509130032 | 7 | 0.0 | 0.0 | 0.00 | 0.00 | 0.00 | 99 | 1017.1 | |
| 20260509125019 | 7 | 0.0 | 0.0 | 0.00 | 0.00 | 0.00 | 99 | 1017.1 | |
| 20260509124030 | 7 | 0.0 | 0.0 | 0.00 | 0.00 | 0.00 | 99 | 1017.1 | |
| 20260509123020 | 7 | 0.0 | 0.0 | 0.00 | 0.00 | 0.00 | 99 | 1017.1 | |
| 20260509122025 | 7 | 0.0 | 0.0 | 0.00 | 0.00 | 0.00 | 99 | 1017.1 | |
| 20260509121033 | 7 | 0.0 | 0.0 | 0.00 | 0.00 | 0.00 | 99 | 1017.9 | |
| 20260509120044 | 8 | 90 | 0.0 | 1.6 | 0.00 | 0.00 | 0.00 | 99 | 1018.1 |
| 20260509115035 | 8 | 0.0 | 0.0 | 0.00 | 0.00 | 0.00 | 99 | 1017.1 | |
| 20260509114020 | 8 | 0.0 | 0.0 | 0.00 | 0.00 | 0.00 | 99 | 1017.1 | |
| 20260509113021 | 8 | 0.0 | 0.0 | 0.00 | 0.00 | 0.00 | 99 | 1017.1 | |
| 20260509112036 | 8 | 0.0 | 0.0 | 0.00 | 0.00 | 0.00 | 99 | 1017.1 | |
| 20260509111025 | 8 | 0.0 | 0.0 | 0.00 | 0.00 | 0.00 | 99 | 1017.9 | |
| 20260509110033 | 8 | 0.0 | 3.2 | 0.00 | 0.00 | 0.00 | 99 | 1018.1 | |
| 20260509105023 | 8 | 230 | 1.6 | 3.2 | 0.00 | 0.00 | 0.00 | 99 | 1018.1 |
| 20260509104032 | 8 | 231 | 3.2 | 3.2 | 0.00 | 0.00 | 0.00 | 99 | 1018.1 |
| 20260509103022 | 8 | 248 | 0.0 | 1.6 | 0.00 | 0.00 | 0.00 | 99 | 1018.1 |
| 20260509102028 | 8 | 248 | 0.0 | 3.2 | 0.00 | 0.00 | 0.00 | 99 | 1018.1 |
| 20260509101037 | 9 | 260 | 1.6 | 4.8 | 0.00 | 0.00 | 0.00 | 99 | 1018.1 |
| 20260509100026 | 9 | 0.0 | 0.0 | 0.00 | 0.00 | 0.00 | 99 | 1018.1 | |
| 20260509095034 | 9 | 248 | 1.6 | 3.2 | 0.00 | 0.00 | 0.00 | 99 | 1018.1 |
| 20260509094023 | 8 | 248 | 1.6 | 4.8 | 0.00 | 0.00 | 0.00 | 98 | 1018.1 |
| 20260509093023 | 8 | 0.0 | 0.0 | 0.00 | 0.00 | 0.00 | 98 | 1018.1 | |
| 20260509092021 | 9 | 0.0 | 0.0 | 0.00 | 0.00 | 0.00 | 98 | 1018.1 | |
| 20260509091028 | 9 | 270 | 0.0 | 1.6 | 0.00 | 0.00 | 0.00 | 97 | 1018.1 |
| 20260509090037 | 9 | 270 | 0.0 | 3.2 | 0.00 | 0.00 | 0.00 | 97 | 1018.1 |
| 20260509085026 | 9 | 0.0 | 0.0 | 0.00 | 0.00 | 0.00 | 96 | 1018.1 | |
| 20260509084034 | 10 | 0.0 | 1.6 | 0.00 | 0.00 | 0.00 | 95 | 1018.1 | |
| 20260509083025 | 10 | 270 | 1.6 | 3.2 | 0.00 | 0.00 | 0.00 | 94 | 1018.1 |
| 20260509082032 | 10 | 0 | 0.0 | 4.8 | 0.00 | 0.00 | 0.00 | 94 | 1018.1 |
| 20260509081021 | 10 | 0.0 | 0.0 | 0.00 | 0.00 | 0.00 | 93 | 1018.1 | |
| 20260509080029 | 11 | 0.0 | 0.0 | 0.00 | 0.00 | 0.00 | 92 | 1018.1 | |
| 20260509075040 | 11 | 0.0 | 0.0 | 0.00 | 0.00 | 0.00 | 92 | 1018.1 | |
| 20260509074027 | 11 | 0.0 | 0.0 | 0.00 | 0.00 | 0.00 | 91 | 1018.1 | |
| 20260509073025 | 11 | 0.0 | 0.0 | 0.00 | 0.00 | 0.00 | 90 | 1018.1 | |
| 20260509072025 | 11 | 0.0 | 0.0 | 0.00 | 0.00 | 0.00 | 88 | 1018.1 | |
| 20260509071033 | 12 | 221 | 3.2 | 4.8 | 0.00 | 0.00 | 0.00 | 88 | 1018.1 |
| 20260509070045 | 12 | 237 | 3.2 | 4.8 | 0.00 | 0.00 | 0.00 | 86 | 1018.1 |
| 20260509065030 | 12 | 223 | 4.8 | 6.4 | 0.00 | 0.00 | 0.00 | 86 | 1018.1 |
| 20260509064019 | 12 | 190 | 3.2 | 4.8 | 0.00 | 0.00 | 0.00 | 85 | 1018.1 |
| 20260509063027 | 12 | 223 | 4.8 | 8.0 | 0.00 | 0.00 | 0.00 | 84 | 1018.1 |
| 20260509062113 | 13 | 213 | 6.4 | 8.0 | 0.00 | 0.00 | 0.00 | 84 | 1018.1 |
| 20260509061024 | 13 | 201 | 6.4 | 8.0 | 0.00 | 0.00 | 0.00 | 83 | 1018.1 |
| 20260509060033 | 13 | 201 | 6.4 | 9.7 | 0.00 | 0.00 | 0.00 | 82 | 1018.1 |
| 20260509055041 | 13 | 210 | 8.0 | 11.3 | 0.00 | 0.00 | 0.00 | 82 | 1018.1 |
| 20260509054029 | 13 | 209 | 9.7 | 12.9 | 0.00 | 0.00 | 0.00 | 81 | 1018.1 |
| 20260509053019 | 13 | 210 | 9.7 | 16.1 | 0.00 | 0.00 | 0.00 | 80 | 1018.1 |
| 20260509052027 | 14 | 208 | 9.7 | 12.9 | 0.00 | 0.00 | 0.00 | 80 | 1018.1 |
| 20260509051054 | 14 | 193 | 8.0 | 11.3 | 0.00 | 0.00 | 0.00 | 79 | 1018.1 |
| 20260509050025 | 15 | 191 | 9.7 | 11.3 | 0.00 | 0.00 | 0.00 | 78 | 1018.1 |
| 20260509045050 | 15 | 231 | 6.4 | 9.7 | 0.00 | 0.00 | 0.00 | 78 | 1018.1 |
| 20260509044040 | 15 | 212 | 4.8 | 8.0 | 0.00 | 0.00 | 0.00 | 77 | 1018.1 |
| 20260509043029 | 15 | 240 | 6.4 | 9.7 | 0.00 | 0.00 | 0.00 | 76 | 1018.1 |
| 20260509042037 | 15 | 224 | 6.4 | 8.0 | 0.00 | 0.00 | 0.00 | 75 | 1018.1 |
| 20260509041026 | 16 | 220 | 6.4 | 11.3 | 0.00 | 0.00 | 0.00 | 74 | 1018.1 |
| 20260509040034 | 16 | 235 | 6.4 | 9.7 | 0.00 | 0.00 | 0.00 | 73 | 1018.1 |
| 20260509035023 | 16 | 238 | 6.4 | 9.7 | 0.00 | 0.00 | 0.00 | 72 | 1018.1 |
| 20260509034032 | 16 | 229 | 8.0 | 11.3 | 0.00 | 0.00 | 0.00 | 71 | 1018.1 |
| 20260509033020 | 17 | 222 | 9.7 | 14.5 | 0.00 | 0.00 | 0.00 | 69 | 1018.1 |
| 20260509032019 | 17 | 240 | 11.3 | 17.7 | 0.00 | 0.00 | 0.00 | 68 | 1018.1 |
| 20260509031036 | 17 | 209 | 9.7 | 11.3 | 0.00 | 0.00 | 0.00 | 66 | 1017.4 |
| 20260509030026 | 18 | 221 | 11.3 | 17.7 | 0.00 | 0.00 | 0.00 | 64 | 1017.1 |
| 20260509025033 | 19 | 221 | 9.7 | 12.9 | 0.00 | 0.00 | 0.00 | 61 | 1017.1 |
| 20260509024043 | 19 | 231 | 9.7 | 12.9 | 0.00 | 0.00 | 0.00 | 60 | 1017.1 |
| 20260509023031 | 20 | 236 | 8.0 | 11.3 | 0.00 | 0.00 | 0.00 | 57 | 1017.2 |
| 20260509022040 | 20 | 232 | 9.7 | 12.9 | 0.00 | 0.00 | 0.00 | 57 | 1017.2 |
| 20260509021028 | 20 | 210 | 6.4 | 11.3 | 0.00 | 0.00 | 0.00 | 56 | 1017.1 |
| 20260509020036 | 20 | 210 | 8.0 | 11.3 | 0.00 | 0.00 | 0.00 | 56 | 1017.1 |
| 20260509015045 | 20 | 222 | 4.8 | 6.4 | 0.00 | 0.00 | 0.00 | 55 | 1017.1 |
| 20260509014033 | 20 | 12 | 1.6 | 6.4 | 0.00 | 0.00 | 0.00 | 54 | 1017.1 |
| 20260509013023 | 21 | 219 | 8.0 | 11.3 | 0.00 | 0.00 | 0.00 | 54 | 1017.1 |
| 20260509012021 | 20 | 218 | 11.3 | 12.9 | 0.00 | 0.00 | 0.00 | 54 | 1018.1 |
| 20260509011019 | 21 | 230 | 8.0 | 14.5 | 0.00 | 0.00 | 0.00 | 53 | 1018.1 |
| 20260509010033 | 20 | 136 | 4.8 | 8.0 | 0.00 | 0.00 | 0.00 | 54 | 1018.1 |
| 20260509005035 | 20 | 184 | 4.8 | 8.0 | 0.00 | 0.00 | 0.00 | 54 | 1018.1 |
| 20260509004025 | 20 | 224 | 9.7 | 14.5 | 0.00 | 0.00 | 0.00 | 54 | 1018.1 |
| 20260509003033 | 20 | 203 | 9.7 | 12.9 | 0.00 | 0.00 | 0.00 | 54 | 1018.1 |
| 20260509002024 | 21 | 227 | 9.7 | 14.5 | 0.00 | 0.00 | 0.00 | 53 | 1018.1 |
| 20260509001033 | 20 | 180 | 6.4 | 12.9 | 0.00 | 0.00 | 0.00 | 54 | 1018.1 |
| 20260509000019 | 20 | 238 | 12.9 | 17.7 | 0.00 | 0.00 | 0.00 | 53 | 1018.1 |
| 20260508235027 | 20 | 222 | 11.3 | 16.1 | 0.00 | 0.00 | 0.00 | 53 | 1018.1 |
| 20260508234055 | 20 | 231 | 9.7 | 12.9 | 0.00 | 0.00 | 0.00 | 52 | 1018.1 |
| 20260508233027 | 21 | 185 | 8.0 | 14.5 | 0.00 | 0.00 | 0.00 | 51 | 1018.1 |
| 20260508232025 | 20 | 248 | 8.0 | 11.3 | 0.00 | 0.00 | 0.00 | 52 | 1018.1 |
| 20260508231041 | 21 | 223 | 12.9 | 19.3 | 0.00 | 0.00 | 0.00 | 51 | 1018.1 |
| 20260508230029 | 21 | 199 | 8.0 | 11.3 | 0.00 | 0.00 | 0.00 | 50 | 1018.1 |
| 20260508225019 | 20 | 115 | 6.4 | 8.0 | 0.00 | 0.00 | 0.00 | 50 | 1018.1 |
| 20260508224027 | 20 | 179 | 6.4 | 11.3 | 0.00 | 0.00 | 0.00 | 50 | 1018.1 |
| 20260508223055 | 20 | 210 | 4.8 | 8.0 | 0.00 | 0.00 | 0.00 | 50 | 1018.1 |
| 20260508222025 | 20 | 140 | 9.7 | 11.3 | 0.00 | 0.00 | 0.00 | 49 | 1018.1 |
| 20260508221032 | 20 | 190 | 6.4 | 11.3 | 0.00 | 0.00 | 0.00 | 48 | 1018.1 |
| 20260508220025 | 20 | 201 | 9.7 | 12.9 | 0.00 | 0.00 | 0.00 | 49 | 1018.1 |
| 20260508215029 | 20 | 219 | 4.8 | 8.0 | 0.00 | 0.00 | 0.00 | 49 | 1018.1 |
| 20260508214037 | 20 | 198 | 9.7 | 14.5 | 0.00 | 0.00 | 0.00 | 52 | 1018.1 |
| 20260508213026 | 18 | 171 | 9.7 | 14.5 | 0.00 | 0.00 | 0.00 | 51 | 1018.1 |
| 20260508212025 | 20 | 218 | 9.7 | 14.5 | 0.00 | 0.00 | 0.00 | 50 | 1018.1 |
| 20260508211025 | 19 | 182 | 8.0 | 11.3 | 0.00 | 0.00 | 0.00 | 50 | 1018.1 |
| 20260508210033 | 18 | 208 | 6.4 | 11.3 | 0.00 | 0.00 | 0.00 | 51 | 1018.1 |
| 20260508205020 | 18 | 155 | 8.0 | 11.3 | 0.00 | 0.00 | 0.00 | 51 | 1018.1 |
| 20260508204027 | 18 | 168 | 8.0 | 14.5 | 0.00 | 0.00 | 0.00 | 52 | 1018.9 |
| 20260508203036 | 18 | 191 | 8.0 | 14.5 | 0.00 | 0.00 | 0.00 | 52 | 1019.1 |
| 20260508202027 | 18 | 93 | 8.0 | 11.3 | 0.00 | 0.00 | 0.00 | 53 | 1019.1 |
| 20260508201053 | 18 | 94 | 8.0 | 12.9 | 0.00 | 0.00 | 0.00 | 54 | 1019.1 |
| 20260508200025 | 18 | 192 | 8.0 | 12.9 | 0.00 | 0.00 | 0.00 | 53 | 1019.1 |